Location: *
(24.1434°N, 56.8729°E)
Time: 07:58:53
(UTC+00:00)

STARLINK-1102 - Pass Details

Date: 09 April 2020
Orbit: 548 x 550 km, 53.0° (Epoch: 26 May)

Event Time Altitude Azimuth Distance (km) Brightness Sun altitude
Rises 14:53:52 0° 325° (NW) 2,713 7.9 -5.8°
Reaches altitude 10° 14:56:07 10° 329° (NNW) 1,818 6.9 -6.3°
Maximum altitude 15:00:13 61° 50° (NE) 624 3.7 -7.2°
Drops below altitude 10° 15:04:16 10° 131° (SE) 1,811 5.7 -8.1°
Enters shadow 15:04:53 - 132° (SE) 2,050 6.0 -8.2°
